Location: Hac?musa Deresi
(39.1694°N, 32.2508°E)
Time: 23:16:13
(UTC+00:00)

Cosmos 1656 Rocket - Pass Details

Date: 22 April 2026
Orbit: 794 x 843 km, 71.1° (Epoch: 9 May)

Event Time Altitude Azimuth Distance (km) Brightness Sun altitude
Rises 17:44:56 0° 342° (NNW) 3,324 7.6 -13.3°
Reaches altitude 10° 17:47:25 10° 347° (NNW) 2,396 6.7 -13.7°
Maximum altitude 17:52:45 51° 64° (ENE) 1,015 3.9 -14.6°
Enters shadow 17:56:03 23° 131° (SE) 1,691 4.7 -15.2°
